User: anonymous   Login
Location: Unspecified
(0.0000°N, 0.0000°E)
Time: 11:01:25
(UTC+00:00)
Language:

YAOGAN-35 04B - Orbit

View from above orbital plane
View from above orbital plane
View from above satellite
View from above satellite

Ground track
Ground track

The orbit is defined by the following mean orbital elements,

1 53524U          26145.50656589 +.00000000 +00000-0 +32404-3 0 00000
2 53524  35.0004 172.4566 0003008  87.0716 273.0347 15.35282846    04
Epoch (UTC): 25 May 2026 12:09:27
Eccentricity: 0.0003008
inclination: 35.0004°
perigee height: 458 km
apogee height: 462 km
right ascension of ascending node: 172.4566°
argument of perigee: 87.0716°
revolutions per day: 15.35282846
mean anomaly at epoch: 273.0347°

The dashed part of the orbit path shows where the satellite is in the earth's shadow,  

DLR